ICE56L BIKF-BIAR

Flight info

Callsign ICE56L
Flight time 0h 36m
Altitude 19000
Route LUTER3C LUTER DCT ASKUR
Aircraft B38M/M-SDE1FGHILORVWXY/HB1

Departure

Time 2026-04-27 17:40
Airport Keflavik International Airport (BIKF)

Arrival

Time 2026-04-27 18:16
Airport Akureyri International Airport (BIAR)
Time Latitude Longitude Altitude Speed Heading
2026-04-27 17:30 63.99258 -22.61619 135 ft 0 kts 270°
2026-04-27 17:34 63.99258 -22.61583 148 ft 4 kts 267°
2026-04-27 17:34 63.99261 -22.61522 147 ft 4 kts 258°
2026-04-27 17:34 63.99268 -22.61465 147 ft 4 kts 238°
2026-04-27 17:34 63.99284 -22.61430 147 ft 3 kts 184°
2026-04-27 17:35 63.99287 -22.61429 147 ft 0 kts 180°
2026-04-27 17:36 63.99283 -22.61429 148 ft 0 kts 180°
2026-04-27 17:37 63.99245 -22.61430 151 ft 7 kts 180°
2026-04-27 17:37 63.99203 -22.61427 151 ft 3 kts 172°
2026-04-27 17:37 63.99198 -22.61423 151 ft 0 kts 163°
2026-04-27 17:37 63.99188 -22.61406 152 ft 5 kts 141°
2026-04-27 17:38 63.99174 -22.61313 155 ft 7 kts 91°
2026-04-27 17:38 63.99174 -22.61111 159 ft 18 kts 87°
2026-04-27 17:38 63.99173 -22.60765 167 ft 21 kts 89°
2026-04-27 17:38 63.99151 -22.60593 174 ft 10 kts 123°
2026-04-27 17:39 63.99092 -22.60540 178 ft 12 kts 177°
2026-04-27 17:39 63.99000 -22.60540 174 ft 35 kts 181°
2026-04-27 17:39 63.98503 -22.60539 176 ft 103 kts 180°
2026-04-27 17:39 63.97643 -22.60406 195 ft 144 kts 168°
2026-04-27 17:40 63.97488 -22.60351 215 ft 147 kts 168°
2026-04-27 17:40 63.97203 -22.60270 420 ft 127 kts 171°
2026-04-27 17:40 63.96270 -22.60015 536 ft 106 kts 167°
2026-04-27 17:40 63.95744 -22.59778 1497 ft 95 kts 168°
2026-04-27 17:41 63.95125 -22.59294 1941 ft 92 kts 171°
2026-04-27 17:41 63.94655 -22.58047 2200 ft 115 kts 141°
2026-04-27 17:41 63.94226 -22.56288 2357 ft 142 kts 133°
2026-04-27 17:41 63.93671 -22.54250 2377 ft 157 kts 145°
2026-04-27 17:42 63.92696 -22.53692 2338 ft 155 kts 211°
2026-04-27 17:42 63.92812 -22.56147 2770 ft 199 kts 293°
2026-04-27 17:42 63.94053 -22.57926 3180 ft 230 kts 341°
2026-04-27 17:42 63.95642 -22.57406 3590 ft 237 kts 30°
2026-04-27 17:43 63.96756 -22.54763 3721 ft 234 kts 75°
2026-04-27 17:43 63.96885 -22.51248 3725 ft 218 kts 118°
2026-04-27 17:43 63.96028 -22.48706 3803 ft 198 kts 157°
2026-04-27 17:43 63.94854 -22.47302 4196 ft 182 kts 161°
2026-04-27 17:44 63.93766 -22.45887 4538 ft 184 kts 158°
2026-04-27 17:44 63.92689 -22.44042 4562 ft 203 kts 149°
2026-04-27 17:44 63.91678 -22.41621 4566 ft 219 kts 139°
2026-04-27 17:44 63.90841 -22.38590 4517 ft 233 kts 126°
2026-04-27 17:45 63.90208 -22.35132 4504 ft 240 kts 121°
2026-04-27 17:45 63.89605 -22.31589 4511 ft 241 kts 122°
2026-04-27 17:45 63.88961 -22.28101 4551 ft 239 kts 122°
2026-04-27 17:45 63.88337 -22.24808 5053 ft 222 kts 123°
2026-04-27 17:46 63.87696 -22.21501 5016 ft 233 kts 124°
2026-04-27 17:46 63.87042 -22.18073 5069 ft 240 kts 123°
2026-04-27 17:46 63.86379 -22.14546 5090 ft 245 kts 123°
2026-04-27 17:46 63.85703 -22.10966 5141 ft 246 kts 123°
2026-04-27 17:47 63.85065 -22.07553 5640 ft 230 kts 124°
2026-04-27 17:47 63.84847 -22.06415 5761 ft 236 kts 124°
2026-04-27 17:47 63.84000 -22.01573 6314 ft 267 kts 111°
2026-04-27 17:47 63.84078 -21.95658 7307 ft 296 kts 90°
2026-04-27 17:48 63.84231 -21.91011 8098 ft 290 kts 108°
2026-04-27 17:48 63.83638 -21.88554 8548 ft 250 kts 167°
2026-04-27 17:48 63.83021 -21.91040 8630 ft 289 kts 287°
2026-04-27 17:48 63.84319 -21.94279 10594 ft 280 kts 317°
2026-04-27 17:49 63.86217 -21.95825 11315 ft 313 kts 347°
2026-04-27 17:49 63.88500 -21.95172 11489 ft 352 kts 21°
2026-04-27 17:49 63.90586 -21.92000 11665 ft 373 kts 51°
2026-04-27 17:49 63.91928 -21.86901 11830 ft 382 kts 80°
2026-04-27 17:50 63.92179 -21.81060 12184 ft 375 kts 107°
2026-04-27 17:50 63.90402 -21.70107 13557 ft 375 kts 123°
2026-04-27 17:50 63.89420 -21.64443 14265 ft 386 kts 119°
2026-04-27 17:51 63.88630 -21.58516 14934 ft 399 kts 113°
2026-04-27 17:51 63.88077 -21.52235 15568 ft 411 kts 107°
2026-04-27 17:51 63.87836 -21.45670 16275 ft 425 kts 97°
2026-04-27 17:51 63.88448 -21.38982 17114 ft 446 kts 72°
2026-04-27 17:52 63.89948 -21.32752 17937 ft 452 kts 63°
2026-04-27 17:52 63.91590 -21.26642 18637 ft 453 kts 63°
2026-04-27 17:52 63.93094 -21.20378 19042 ft 449 kts 68°
2026-04-27 17:52 63.94471 -21.13816 19125 ft 464 kts 69°
2026-04-27 17:53 63.95922 -21.07037 19139 ft 487 kts 67°
2026-04-27 17:53 63.97544 -21.00106 19139 ft 501 kts 65°
2026-04-27 17:53 63.99175 -20.93187 19139 ft 505 kts 66°
2026-04-27 17:53 64.00759 -20.86070 19137 ft 502 kts 68°
2026-04-27 17:54 64.02317 -20.78902 19141 ft 505 kts 67°
2026-04-27 17:54 64.03915 -20.71740 19143 ft 506 kts 66°
2026-04-27 17:54 64.05557 -20.64499 19143 ft 507 kts 66°
2026-04-27 17:54 64.07157 -20.57312 19144 ft 506 kts 66°
2026-04-27 17:55 64.08732 -20.50110 19151 ft 505 kts 67°
2026-04-27 17:55 64.10361 -20.43064 19163 ft 510 kts 60°
2026-04-27 17:55 64.12529 -20.36616 19163 ft 513 kts 48°
2026-04-27 17:55 64.15200 -20.31189 19164 ft 514 kts 35°
2026-04-27 17:56 64.18177 -20.26637 19168 ft 514 kts 31°
2026-04-27 17:56 64.21182 -20.22209 19171 ft 513 kts 31°
2026-04-27 17:56 64.24200 -20.17768 19150 ft 513 kts 31°
2026-04-27 17:56 64.27191 -20.13286 19153 ft 513 kts 31°
2026-04-27 17:57 64.30178 -20.08774 19164 ft 513 kts 31°
2026-04-27 17:57 64.33169 -20.04283 19163 ft 513 kts 31°
2026-04-27 17:57 64.36166 -19.99792 19163 ft 513 kts 31°
2026-04-27 17:57 64.39155 -19.95284 19149 ft 514 kts 31°
2026-04-27 17:58 64.42143 -19.90747 19154 ft 514 kts 32°
2026-04-27 17:58 64.45130 -19.86207 19159 ft 513 kts 31°
2026-04-27 17:58 64.48130 -19.81648 19157 ft 513 kts 31°
2026-04-27 17:58 64.51112 -19.77102 19154 ft 513 kts 32°
2026-04-27 17:59 64.54092 -19.72539 19158 ft 513 kts 32°
2026-04-27 17:59 64.57069 -19.67968 19139 ft 513 kts 32°
2026-04-27 17:59 64.60006 -19.63451 19152 ft 510 kts 31°
2026-04-27 17:59 64.62972 -19.58881 19106 ft 510 kts 31°
2026-04-27 18:00 64.65916 -19.54326 18937 ft 505 kts 31°
2026-04-27 18:00 64.68837 -19.49793 18653 ft 502 kts 31°
2026-04-27 18:00 64.71723 -19.45306 18260 ft 492 kts 31°
2026-04-27 18:00 64.74531 -19.40927 17791 ft 478 kts 31°
2026-04-27 18:01 64.77275 -19.36642 17128 ft 471 kts 31°
2026-04-27 18:01 64.79992 -19.32391 16356 ft 468 kts 32°
2026-04-27 18:01 64.82701 -19.28160 15519 ft 467 kts 32°
2026-04-27 18:01 64.85377 -19.23939 15028 ft 457 kts 33°
2026-04-27 18:02 64.87964 -19.19825 14912 ft 441 kts 32°
2026-04-27 18:02 64.90533 -19.15764 14445 ft 443 kts 32°
2026-04-27 18:02 64.93067 -19.11764 14089 ft 433 kts 32°
2026-04-27 18:02 64.95530 -19.07852 13777 ft 422 kts 32°
2026-04-27 18:03 64.97937 -19.04007 13420 ft 412 kts 32°
2026-04-27 18:03 65.00292 -19.00244 13074 ft 407 kts 32°
2026-04-27 18:03 65.02648 -18.96485 12726 ft 408 kts 32°
2026-04-27 18:03 65.05001 -18.92718 12393 ft 409 kts 32°
2026-04-27 18:04 65.07343 -18.88954 12031 ft 402 kts 32°
2026-04-27 18:04 65.09642 -18.85251 11655 ft 399 kts 32°
2026-04-27 18:04 65.11940 -18.81544 11251 ft 399 kts 32°
2026-04-27 18:04 65.14237 -18.77832 10882 ft 400 kts 33°
2026-04-27 18:05 65.16542 -18.74099 10483 ft 401 kts 33°
2026-04-27 18:05 65.18862 -18.70420 10300 ft 400 kts 28°
2026-04-27 18:05 65.21385 -18.67644 10106 ft 397 kts 15°
2026-04-27 18:05 65.24059 -18.66668 9887 ft 396 kts
2026-04-27 18:06 65.26730 -18.65049 9746 ft 399 kts 19°
2026-04-27 18:06 65.29225 -18.62074 9651 ft 395 kts 27°
2026-04-27 18:06 65.31590 -18.58982 9523 ft 378 kts 24°
2026-04-27 18:06 65.33938 -18.56507 9386 ft 360 kts 15°
2026-04-27 18:07 65.36276 -18.54690 9188 ft 347 kts 12°
2026-04-27 18:07 65.38549 -18.52999 8944 ft 337 kts 12°
2026-04-27 18:07 65.40749 -18.51171 8693 ft 332 kts 16°
2026-04-27 18:07 65.42903 -18.49257 8389 ft 325 kts 10°
2026-04-27 18:08 65.45076 -18.48158 8334 ft 323 kts 12°
2026-04-27 18:08 65.47179 -18.46218 8164 ft 324 kts 19°
2026-04-27 18:08 65.49233 -18.44114 8055 ft 317 kts 18°
2026-04-27 18:08 65.51364 -18.42983 8044 ft 313 kts
2026-04-27 18:09 65.53487 -18.41487 8020 ft 322 kts 16°
2026-04-27 18:09 65.55574 -18.39447 7850 ft 317 kts 19°
2026-04-27 18:09 65.57580 -18.37330 7766 ft 320 kts 20°
2026-04-27 18:09 65.59609 -18.35186 7631 ft 321 kts 20°
2026-04-27 18:10 65.61646 -18.33084 7480 ft 319 kts 18°
2026-04-27 18:10 65.63779 -18.31796 7313 ft 312 kts
2026-04-27 18:10 65.65862 -18.30213 7161 ft 314 kts 17°
2026-04-27 18:10 65.67884 -18.28142 7060 ft 313 kts 19°
2026-04-27 18:11 65.69805 -18.26175 6398 ft 288 kts 19°
2026-04-27 18:11 65.71536 -18.24384 6015 ft 257 kts 19°
2026-04-27 18:11 65.73109 -18.22728 5832 ft 234 kts 19°
2026-04-27 18:11 65.74592 -18.21087 5489 ft 230 kts 20°
2026-04-27 18:12 65.76059 -18.19581 5186 ft 228 kts 18°
2026-04-27 18:12 65.77313 -18.17372 4910 ft 224 kts 58°
2026-04-27 18:12 65.77815 -18.14152 4401 ft 191 kts 109°
2026-04-27 18:12 65.77233 -18.11736 3900 ft 151 kts 149°
2026-04-27 18:13 65.76416 -18.10284 3396 ft 143 kts 154°
2026-04-27 18:13 65.75560 -18.09270 2777 ft 129 kts 163°
2026-04-27 18:13 65.74705 -18.08806 2460 ft 126 kts 171°
2026-04-27 18:13 65.73807 -18.08533 2132 ft 129 kts 174°
2026-04-27 18:14 65.72926 -18.08428 1726 ft 135 kts 176°
2026-04-27 18:14 65.72014 -18.08396 1379 ft 124 kts 174°
2026-04-27 18:14 65.71123 -18.08406 1171 ft 139 kts 179°
2026-04-27 18:14 65.70259 -18.08352 1181 ft 126 kts 173°
2026-04-27 18:15 65.69387 -18.07996 806 ft 125 kts 172°
2026-04-27 18:15 65.68524 -18.07697 563 ft 129 kts 178°
2026-04-27 18:15 65.67646 -18.07542 287 ft 121 kts 176°
2026-04-27 18:15 65.66822 -18.07405 93 ft 123 kts 175°
2026-04-27 18:16 65.66026 -18.07263 30 ft 94 kts 178°
2026-04-27 18:16 65.65430 -18.07108 170 ft 79 kts 173°
2026-04-27 18:16 65.65258 -18.07057 43 ft 80 kts 175°
2026-04-27 18:16 65.64798 -18.06919 19 ft 48 kts 176°
2026-04-27 18:17 65.64660 -18.07051 16 ft 0 kts 218°